• MPC Preparation (Info)

  • MPEC 2016-U104: 2016 UQ41

    The following Minor Planet Electronic Circular may be linked-to from your own Web pages, but must not otherwise be redistributed electronically.

    A form allowing access to any MPEC is at the bottom of this page.


    Read MPEC 2016-U103 Read MPEC 2016-U105


    M.P.E.C. 2016-U104                               Issued 2016 Oct. 29, 19:05 UT
    
         The Minor Planet Electronic Circulars contain information on unusual
             minor planets and routine data on comets.  They are published
        on behalf of Division F of the International Astronomical Union by the
              Minor Planet Center, Smithsonian Astrophysical Observatory,
                              Cambridge, MA 02138, U.S.A.
    
                 Prepared using the Tamkin Foundation Computer Network
    
                                  MPC@CFA.HARVARD.EDU
                URL https://www.minorplanetcenter.net/    ISSN 1523-6714
    
                                       2016 UQ41
    
    Observations:
         K16U41Q* C2016 10 27.13778 23 39 31.16 +13 41 03.8          20.4 VqEU104G96
         K16U41Q  C2016 10 27.14207 23 39 33.31 +13 39 36.6          20.4 VqEU104G96
         K16U41Q  C2016 10 27.14640 23 39 35.40 +13 38 08.0          20.0 VqEU104G96
         K16U41Q  C2016 10 27.15068 23 39 37.45 +13 36 41.4          20.0 VqEU104G96
         K16U41Q  C2016 10 27.20385723 40 02.64 +13 18 35.0          20.7 VtEU104H01
         K16U41Q  C2016 10 27.21212323 40 06.65 +13 15 46.9          20.7 VtEU104H01
         K16U41Q  C2016 10 27.21977123 40 10.34 +13 13 11.4          20.2 VtEU104H01
         K16U41Q  C2016 10 27.22581 23 40 13.86 +13 11 13.7          20.0 VqEU104G96
         K16U41Q  C2016 10 27.22622 23 40 14.04 +13 11 05.2          20.3 VqEU104G96
         K16U41Q  C2016 10 27.22664 23 40 14.22 +13 10 56.7          19.8 VqEU104G96
         K16U41Q  C2016 10 27.22709 23 40 14.48 +13 10 47.3          20.3 VqEU104G96
         K16U41Q  C2016 10 27.22804623 40 14.35 +13 10 23.2          20.6 VtEU104H01
         K16U41Q  C2016 10 27.27620623 40 37.77 +12 54 05.1          21.2 VtEU104H01
         K16U41Q  C2016 10 27.29034523 40 44.71 +12 49 18.0          20.7 VtEU104H01
         K16U41Q  C2016 10 27.30391423 40 51.40 +12 44 43.0          20.4 VtEU104H01
         K16U41Q  C2016 10 27.32072323 40 59.74 +12 39 02.2          20.8 VtEU104H01
         K16U41Q  C2016 10 28.08717 23 47 46.93 +08 31 07.5          20.0 VqEU104G96
         K16U41Q  C2016 10 28.08912 23 47 47.78 +08 30 30.4          20.4 VqEU104G96
         K16U41Q  C2016 10 28.08957 23 47 48.04 +08 30 22.9          20.3 VqEU104G96
         K16U41Q KC2016 10 28.21228 23 48 40.99 +07 52 27.2          20.6 RoEU104291
         K16U41Q KC2016 10 28.21328 23 48 41.42 +07 52 09.1          19.7 RoEU104291
         K16U41Q KC2016 10 28.21429 23 48 41.84 +07 51 50.2          19.6 RoEU104291
         K16U41Q  C2016 10 28.22499 23 48 46.28 +07 48 33.1          19.6 RoEU104926
         K16U41Q  C2016 10 28.23096 23 48 48.83 +07 46 43.2          20.1 RoEU104926
         K16U41Q  C2016 10 29.13651 23 55 48.79 +03 21 32.3          20.5 VqEU104I52
         K16U41Q  C2016 10 29.13763 23 55 49.21 +03 21 13.7          20.7 VqEU104I52
         K16U41Q  C2016 10 29.13875 23 55 49.63 +03 20 54.9          20.3 VqEU104I52
         K16U41Q  C2016 10 29.13987 23 55 50.02 +03 20 36.2          20.4 VqEU104I52
         K16U41Q  C2016 10 29.19582 23 56 11.25 +03 05 08.5          20.1 RoEU104926
         K16U41Q  C2016 10 29.19906 23 56 12.47 +03 04 14.9          20.0 RoEU104926
         K16U41Q  C2016 10 29.20230 23 56 13.69 +03 03 20.9          20.3 RoEU104926
    
    Observer details:
    291 LPL/Spacewatch II.  Observer R. A. Mastaler.  1.8-m f/2.7 reflector + CCD.
    926 Tenagra II Observatory.  Observers M. Schwartz, P. R. Holvorcem.  Measurer
        M. Schwartz.  0.81-m f/7 Ritchey-Chretien + CCD.
    G96 Mt. Lemmon Survey.  Observers G. J. Leonard, D. C. Fuls.  Measurers
        E. J. Christensen, D. C. Fuls, A. R. Gibbs, A. D. Grauer, J. A. Johnson,
        R. A. Kowalski, S. M. Larson, G. J. Leonard, R. G. Matheny, R. L. Seaman,
        F. C. Shelly.  1.5-m reflector + 10K CCD.
    H01 Magdalena Ridge Observatory, Socorro.  Observers W. H. Ryan, E. V. Ryan.
        Measurer W. H. Ryan.  2.4-m f/8.9 reflector + CCD.
    I52 Steward Observatory, Mt. Lemmon Station.  Observer J. A. Johnson.
        Measurers E. J. Christensen, D. C. Fuls, A. R. Gibbs, A. D. Grauer,
        J. A. Johnson, R. A. Kowalski, S. M. Larson, G. J. Leonard, R. G. Matheny,
        R. L. Seaman, F. C. Shelly.  1.0-m reflector + CCD.
    
    Orbital elements:
    2016 UQ41                                                Earth MOID = 0.0412 AU
    Epoch 2016 July 31.0 TT = JDT 2457600.5                 MPC
    M  25.08712              (2000.0)            P               Q
    n   1.07031776     Peri.   44.04997     -0.21120109     +0.96331267
    a   0.9465151      Node   214.75726     -0.95776968     -0.23777848
    e   0.1565271      Incl.   16.88621     -0.19511878     +0.12445923
    P   0.92           H   25.3           G   0.15           U   7
    Residuals in seconds of arc
    161027 G96  0.2-  0.2+    161027 H01  0.0   0.1-    161028 926  0.3+  0.6-
    161027 G96  0.5+  0.3+    161027 H01  0.1-  0.1+    161028 926  0.6+  0.2-
    161027 G96  0.1+  0.2-    161027 H01  0.0   0.1-    161029 I52  0.3+  0.1+
    161027 G96  0.5-  0.3+    161027 H01  0.0   0.1+    161029 I52  0.1+  0.1+
    161027 H01  0.0   0.1-    161027 H01  0.1+  0.1-    161029 I52  0.0   0.0
    161027 H01  0.1+  0.1-    161028 G96  0.0   0.2+    161029 I52  0.6-  0.0
    161027 H01  0.1-  0.1-    161028 G96  0.3-  0.6-    161029 926  0.0   0.0
    161027 G96  0.2+  0.1+    161028 G96  0.6+  0.3+    161029 926  0.0   0.1+
    161027 G96  0.0   0.1-    161028 291  0.2-  0.0     161029 926  0.1+  0.2-
    161027 G96  0.3-  0.0     161028 291  0.1-  0.4+
    161027 G96  0.3+  0.3-    161028 291  0.2-  0.1+
    
    Ephemeris:
    2016 UQ41                a,e,i = 0.95, 0.16, 17                  q = 0.7984
    Date    TT    R. A. (2000) Decl.     Delta      r     Elong.  Phase     V
    2016 09 29    15 02 22.6 +63 22 36   0.1436  0.9676    72.2    99.7    24.6
    ...
    2016 10 14    18 41 32.1 +69 41 49   0.07274 1.0058    94.6    81.3    22.5
    ...
    2016 10 22    22 31 38.5 +45 25 11   0.04783 1.0241   126.1    51.7    20.7
    ...
    2016 10 28    23 46 57.5 +08 59 52   0.05227 1.0367   144.7    33.6    20.4
    2016 10 29    23 54 45.2 +04 01 18   0.05515 1.0386   144.4    33.8    20.5
    2016 10 30    00 01 43.0 -00 25 17   0.05848 1.0406   143.5    34.6    20.7
    ...
    2016 11 05    00 31 47.6 -17 52 21   0.08456 1.0517   133.7    43.0    21.7
    ...
    2016 11 13    00 55 47.6 -27 40 03   0.1266  1.0646   123.5    50.8    22.8
    ...
    2016 11 28    01 23 59.2 -32 54 13   0.2102  1.0829   112.0    57.7    24.2
    
    A. U. Tomatic                (C) Copyright 2016 MPC           M.P.E.C. 2016-U104
    

    Read MPEC 2016-U103 Read MPEC 2016-U105


    MPEC number:

    Enter an MPEC number in one of the following forms:

    • 1997-B01 (the full form)
    • J97B01 (the packed version of the full form)
    • B01 (the abbreviated form)